Погода в Ваймесе

Россия / Республика Коми     60°07′46″N   49°13′33″E
темп.,
°C
ветер,
м/с
пор.,
м/с
влажн.,
%
обл.,
%
осадки,
мм/ч
давл.,
гПа
погр.,
м
19 января, вт
вт1900:00−20ююз129889 0.1 101860
03:00−19ю249884 0.1 1019100
06:00−19ю249882 0.1 1018121
09:00−20ююз249883 0.1 1017110
12:00−17ю259591 0.1 1017251
15:00−18ю249892 0.1 101689
18:00−21ююз229996 0.0 101544
21:00−21ююз229998 0.0 101527
20 января, ср
ср2000:00−22ююз229998 0.0 101434
03:00−22юз229994 0.0 101332
06:00−22ююз229977 0.0 101234
09:00−20ююз239988 0.1 101290
12:00−16юз259596 0.1 1011214
15:00−15юз269692 0.2 1010225
18:00−15з279698 0.1 1010262
21:00−18з259898 0.2 1011125
21 января, чт
чт2100:00−20з25100100 0.0 101288
03:00−20з24100100 0.1 1012100
06:00−21з2399100 0.1 101276
09:00−20зюз2599100 0.1 1012139
12:00−17зюз2495100 0.0 1012258
15:00−19зюз1298100 0.1 101120
18:00−20зюз119998 0.0 101020
21:00−18всв119893 0.1 101020
22 января, пт
пт2200:00−19св129886 0.1 100953
03:00−22ссв229986 0.1 101035
06:00−25ссв229981 0.0 101219
09:00−25св129865 0.0 101419
12:00−22св129683 0.0 1015153
15:00−24св229784 0.0 101723
18:00−25всв2297100 0.0 101871
21:00−24в239797 0.0 1020123
23 января, сб
сб2300:00−23вюв269694 0.0 1020187
03:00−22вюв389597 0.0 1020267
06:00−20вюв3894100 0.0 1020314
09:00−19вюв4997100 0.4 1018330
12:00−17вюв41095100 1.1 1017416
15:00−15юв41093100 1.9 1016580
18:00−16вюв4994100 0.3 1017443
21:00−17вюв4994100 0.4 1016375